SR5NLK-1 Weather Reports


Display with metric or nautical units.
time (UTC)temp
F
wind
direction
speed
MPH
gust
MPH
rain 1hr
in
rain 24hr
in
rain mn
in
humidity
%
barometer
mb
20260901055947 75 225 4.0 16.0 0.00 0.04 0.00 65 1040.6
20260901055447 76 202 8.0 12.0 0.00 0.04 0.00 66 1078.4
20260901054947 75 247 11.0 18.0 0.00 0.04 0.00 68 1022.5
20260901054546 75 202 3.0 12.0 0.00 0.04 0.00 71 1009.9
20260901054447 74 292 7.0 12.0 0.00 0.04 0.00 73 1070.2
20260901053947 72 247 2.0 11.0 0.00 0.04 0.00 77 1013.0
20260901053447 70 225 7.0 12.0 0.00 0.04 0.00 80 1070.5
20260901052947 69 202 8.0 16.0 0.00 0.04 0.00 82 1062.7
20260901052447 68 247 4.0 12.0 0.00 0.04 0.00 83 1091.0
20260901051447 67 202 6.0 12.0 0.00 0.04 0.00 88 1061.1
20260901051247 67 180 4.0 11.0 0.00 0.04 0.00 90 1068.9
20260901050947 67 225 9.0 11.0 0.00 0.04 0.00 91 1075.3
20260901050447 66 157 2.0 10.0 0.00 0.04 0.00 93 1069.0
20260901045947 64 247 4.0 8.0 0.00 0.04 0.00 92 1056.4
20260901045447 62 225 5.0 11.0 0.00 0.04 0.00 91 1065.8
20260901044947 62 225 5.0 10.0 0.00 0.04 0.00 91 1059.5
20260901044447 61 225 4.0 10.0 0.00 0.04 0.00 91 1070.5
20260901043947 61 225 7.0 11.0 0.00 0.04 0.00 91 1076.8
20260901043447 61 225 9.0 10.0 0.00 0.04 0.00 91 1078.4
20260901042947 61 202 5.0 10.0 0.00 0.04 0.00 91 1076.8
20260901042448 61 202 10.0 11.0 0.00 0.04 0.00 91 1072.1
20260901041948 61 202 7.0 12.0 0.00 0.04 0.00 91 1068.9
20260901041448 61 202 10.0 12.0 0.00 0.04 0.00 91 1056.4
20260901040948 61 202 8.0 10.0 0.00 0.04 0.00 91 1069.0
20260901040647 61 270 9.0 10.0 0.00 0.04 0.00 91 1095.6
20260901040448 61 225 4.0 8.0 0.00 0.04 0.00 91 1028.0
20260901035948 61 202 4.0 10.0 0.00 0.04 0.00 91 1028.7
20260901035448 61 202 8.0 8.0 0.00 0.04 0.00 91 1072.1
20260901034948 61 202 6.0 7.0 0.00 0.04 0.00 91 1059.5
20260901034448 61 180 6.0 8.0 0.00 0.04 0.00 91 1059.5
20260901033948 61 225 4.0 6.0 0.00 0.04 0.00 91 1053.3
20260901033448 62 202 7.0 7.0 0.00 0.04 0.00 91 1065.8
20260901033347 62 247 5.0 7.0 0.00 0.04 0.00 91 994.9
20260901032948 62 202 4.0 7.0 0.00 0.04 0.00 91 1046.9
20260901032448 62 202 2.0 10.0 0.00 0.04 0.00 91 1073.7
20260901031948 62 180 3.0 8.0 0.00 0.04 0.00 91 1078.3
20260901031448 62 225 4.0 5.0 0.00 0.04 0.00 91 1059.5
20260901030948 62 180 2.0 6.0 0.00 0.04 0.00 91 1065.8
20260901030448 62 180 2.0 5.0 0.00 0.04 0.00 91 1065.8
20260901030047 62 225 1.0 6.0 0.00 0.04 0.00 91 1050.0
20260901025948 62 180 1.0 6.0 0.00 0.04 0.00 91 1050.0
20260901025448 62 180 4.0 7.0 0.00 0.04 0.00 91 1056.4
20260901024948 62 225 5.0 9.0 0.00 0.04 0.00 91 1068.9
20260901024448 62 202 9.0 10.0 0.00 0.04 0.00 91 1034.4
20260901023948 62 225 4.0 6.0 0.00 0.04 0.00 91 1059.5
20260901023448 62 225 6.0 6.0 0.00 0.04 0.00 91 1064.2
20260901022948 62 202 5.0 8.0 0.00 0.04 0.00 91 1072.1
20260901022747 62 202 2.0 8.0 0.00 0.04 0.00 91 1011.4
20260901022448 62 202 8.0 8.0 0.00 0.04 0.00 91 1070.8
20260901022022 62 225 2.0 5.0 0.00 0.04 0.00 91 1078.0
20260901021948 62 225 2.0 5.0 0.00 0.04 0.00 91 1078.0
20260901021448 62 225 2.0 6.0 0.00 0.04 0.00 91 1065.8
20260901020948 62 225 4.0 5.0 0.00 0.04 0.00 91 1062.7
20260901020448 62 202 4.0 4.0 0.00 0.04 0.00 90 1031.8
20260901015948 62 225 3.0 5.0 0.00 0.04 0.00 90 1065.8
20260901015447 62 202 2.0 5.0 0.00 0.04 0.00 90 1065.8
20260901014948 62 202 3.0 6.0 0.00 0.04 0.00 90 1065.8
20260901014448 62 180 2.0 33.0 0.00 0.04 0.00 90 1065.8
20260901013948 62 247 4.0 5.0 0.00 0.04 0.00 90 1068.9
20260901013448 62 180 5.0 6.0 0.00 0.04 0.00 90 1062.6
20260901012948 62 180 3.0 5.0 0.00 0.04 0.00 90 1069.0
20260901012448 62 202 2.0 4.0 0.00 0.04 0.00 90 1078.4
20260901012147 62 180 1.0 4.0 0.00 0.04 0.00 90 1062.7
20260901011948 62 180 1.0 4.0 0.00 0.04 0.00 90 1076.8
20260901011448 62 202 1.0 4.0 0.00 0.04 0.00 90 1069.0
20260901010948 62 180 2.0 4.0 0.00 0.04 0.00 90 1061.3
20260901010448 62 202 2.0 5.0 0.00 0.04 0.00 90 1023.3
20260901005948 62 157 3.0 4.0 0.00 0.04 0.00 90 1064.2
20260901005448 62 157 1.0 5.0 0.00 0.04 0.00 90 1069.0
20260901004948 63 180 1.0 4.0 0.00 0.04 0.00 90 1056.4
20260901004847 63 157 2.0 4.0 0.00 0.04 0.00 90 1079.9
20260901004448 63 180 0.0 4.0 0.00 0.04 0.00 90 1056.4
20260901003948 63 135 1.0 4.0 0.00 0.04 0.00 90 1038.2
20260901003448 63 202 1.0 5.0 0.00 0.04 0.00 90 1019.3
20260901002948 63 180 5.0 6.0 0.00 0.04 0.00 90 1070.5
20260901002448 63 202 3.0 5.0 0.00 0.04 0.00 90 1062.7
20260901001948 63 180 1.0 3.0 0.00 0.04 0.00 90 1062.7
20260901001547 63 180 2.0 5.0 0.00 0.04 0.00 90 1018.9
20260901001448 63 157 2.0 5.0 0.00 0.04 0.00 90 1068.9
20260901000948 63 202 0.0 5.0 0.00 0.04 0.00 90 1064.5
20260901000450 63 180 2.0 4.0 0.00 0.04 0.00 90 1067.4
20260831235948 63 157 1.0 4.0 0.00 0.04 0.00 90 1072.1
20260831235448 63 180 4.0 4.0 0.00 0.04 0.00 90 1018.4
20260831234948 63 180 2.0 4.0 0.00 0.04 0.00 90 1062.6
20260831234448 63 180 1.0 4.0 0.00 0.04 0.00 90 1035.1
20260831234247 63 157 3.0 4.0 0.00 0.04 0.00 90 1084.7
20260831233948 63 157 4.0 4.0 0.00 0.04 0.00 90 1032.8
20260831233448 63 157 4.0 6.0 0.00 0.04 0.00 90 1075.2
20260831232948 63 202 5.0 6.0 0.00 0.04 0.00 89 1076.8
20260831232448 63 180 3.0 6.0 0.00 0.04 0.00 89 1062.7
20260831231948 63 225 3.0 6.0 0.00 0.04 0.00 89 1072.1
20260831231448 63 225 2.0 6.0 0.00 0.04 0.00 89 1062.7
20260831230947 63 180 4.0 5.0 0.00 0.04 0.00 89 1062.7
20260831230448 63 157 3.0 4.0 0.00 0.04 0.00 89 1067.4
20260831225948 63 225 1.0 4.0 0.00 0.04 0.00 89 1043.7
20260831225448 63 157 3.0 5.0 0.00 0.04 0.00 89 1078.4
20260831224948 63 180 0.0 5.0 0.00 0.04 0.00 89 1081.5
20260831224448 63 180 2.0 6.0 0.00 0.04 0.00 89 1030.2
20260831223948 63 247 4.0 9.0 0.00 0.04 0.00 89 1065.8
20260831223647 63 202 2.0 9.0 0.00 0.04 0.00 89 1086.3
20260831223448 63 180 4.0 4.0 0.00 0.04 0.00 89 1059.5
20260831222948 63 180 2.0 5.0 0.00 0.04 0.00 89 1062.7
20260831222448 63 157 4.0 6.0 0.00 0.04 0.00 89 1080.0
20260831221948 63 112 2.0 4.0 0.00 0.04 0.00 89 1072.1
20260831221448 64 180 2.0 5.0 0.00 0.04 0.00 88 1053.2
20260831220948 64 157 2.0 4.0 0.00 0.04 0.00 88 1090.9
20260831220519 64 157 2.0 3.0 0.00 0.04 0.00 88 1078.4
20260831220448 64 157 2.0 3.0 0.00 0.04 0.00 88 1078.4
20260831220347 64 157 0.0 4.0 0.00 0.04 0.00 88 1075.2
20260831215948 64 180 2.0 4.0 0.00 0.04 0.00 88 1075.2
20260831215448 64 202 4.0 7.0 0.00 0.04 0.00 88 1069.0
20260831214948 64 247 4.0 7.0 0.00 0.04 0.00 88 1040.5
20260831214448 64 180 2.0 7.0 0.00 0.04 0.00 88 1072.1
20260831213948 64 157 3.0 5.0 0.00 0.04 0.00 88 1062.7
20260831213448 64 157 3.0 4.0 0.00 0.04 0.00 88 1062.7
20260831213047 64 135 2.0 4.0 0.00 0.04 0.00 88 1056.4
20260831212948 64 157 0.0 4.0 0.00 0.04 0.00 88 1050.1
20260831212448 64 180 2.0 5.0 0.00 0.04 0.00 88 1062.6
20260831211948 64 135 3.0 4.0 0.00 0.04 0.00 88 1058.0
20260831211448 64 157 3.0 6.0 0.00 0.04 0.00 88 999.5
20260831210948 64 180 2.0 7.0 0.00 0.04 0.00 87 1024.0
20260831210448 64 157 4.0 5.0 0.00 0.04 0.00 87 1084.7
20260831205948 64 157 3.0 5.0 0.00 0.04 0.00 87 1053.2
20260831205747 64 157 3.0 4.0 0.00 0.04 0.00 87 1062.7
20260831205448 64 225 2.0 7.0 0.00 0.04 0.00 87 1027.1
20260831204948 64 180 2.0 6.0 0.00 0.04 0.00 87 1076.8
20260831204448 65 157 1.0 8.0 0.00 0.04 0.00 87 1051.6
20260831203948 65 180 4.0 8.0 0.00 0.04 0.00 87 1090.9
20260831203448 65 135 2.0 6.0 0.00 0.04 0.00 87 1065.8
20260831202948 65 180 2.0 9.0 0.00 0.04 0.00 87 1065.8
20260831202447 65 135 5.0 5.0 0.00 0.04 0.00 86 1014.5
20260831201948 65 157 2.0 5.0 0.00 0.04 0.00 86 1072.1
20260831201448 65 180 6.0 6.0 0.00 0.04 0.00 86 1050.7
20260831200948 65 135 3.0 7.0 0.00 0.04 0.00 86 1080.2
20260831200449 65 135 2.0 6.0 0.00 0.04 0.00 86 1070.7
20260831195948 65 135 3.0 6.0 0.00 0.04 0.00 86 1075.2
20260831195448 65 135 4.0 5.0 0.00 0.04 0.00 85 1081.5
20260831195147 65 135 3.0 5.0 0.00 0.04 0.00 85 1033.4
20260831194948 65 157 2.0 5.0 0.00 0.04 0.00 85 1047.6
20260831194448 65 135 1.0 4.0 0.00 0.04 0.00 85 1053.2
20260831193948 65 157 2.0 5.0 0.00 0.04 0.00 85 1050.1
20260831193448 65 157 3.0 5.0 0.00 0.04 0.00 85 1072.1
20260831192948 65 180 1.0 4.0 0.00 0.04 0.00 85 1069.0
20260831192449 65 157 2.0 5.0 0.00 0.04 0.00 84 1075.2
20260831191948 65 157 3.0 7.0 0.00 0.04 0.00 84 1091.5
20260831191847 65 157 4.0 7.0 0.00 0.04 0.00 84 1088.3
20260831191448 65 135 0.0 7.0 0.00 0.04 0.00 84 1081.4
20260831190948 66 180 5.0 7.0 0.00 0.04 0.00 84 1027.1
20260831190448 66 180 4.0 8.0 0.00 0.04 0.00 84 1065.8
20260831185949 66 202 2.0 7.0 0.00 0.04 0.00 84 1065.8
20260831185449 66 180 4.0 8.0 0.00 0.04 0.00 83 1059.5
20260831184949 66 157 1.0 8.0 0.00 0.04 0.00 83 1090.9
20260831184548 66 180 7.0 8.0 0.00 0.04 0.00 82 1072.1
20260831184449 66 157 2.0 6.0 0.00 0.04 0.00 82 1053.2
20260831183949 66 157 3.0 8.0 0.00 0.04 0.00 82 1065.8
20260831183449 66 202 3.0 8.0 0.00 0.04 0.00 82 1050.1
20260831182949 66 202 1.0 6.0 0.00 0.04 0.00 82 1059.5
20260831182449 67 202 3.0 7.0 0.00 0.04 0.00 82 1072.1
20260831181949 67 157 3.0 6.0 0.00 0.04 0.00 81 1075.2
20260831181449 67 202 3.0 5.0 0.00 0.04 0.00 81 1059.5
20260831181248 67 180 0.0 5.0 0.00 0.04 0.00 81 1072.1
20260831180949 67 180 3.0 7.0 0.00 0.04 0.00 81 1089.5
20260831180449 67 157 3.0 7.0 0.00 0.04 0.00 81 1028.8
20260831175949 67 157 3.0 6.0 0.00 0.04 0.00 80 1056.4
20260831175449 67 157 6.0 6.0 0.00 0.04 0.00 79 1023.5
20260831174949 68 157 4.0 4.0 0.00 0.04 0.00 79 1068.9
20260831174449 68 157 3.0 3.0 0.00 0.04 0.00 78 1080.0
20260831173948 68 180 0.0 2.0 0.00 0.04 0.00 78 1075.2
20260831173449 68 157 0.0 3.0 0.00 0.04 0.00 77 1078.4
20260831172949 69 225 1.0 3.0 0.00 0.04 0.00 77 1065.8
20260831172449 69 202 1.0 11.0 0.00 0.04 0.00 76 1065.8
20260831171949 70 202 2.0 4.0 0.00 0.04 0.00 76 1069.0
20260831171449 70 180 0.0 4.0 0.00 0.04 0.00 76 1059.5
20260831170949 70 135 2.0 5.0 0.00 0.04 0.00 76 1062.7
20260831170648 70 157 2.0 5.0 0.00 0.04 0.00 76 1076.8
20260831170449 71 202 1.0 5.0 0.00 0.04 0.00 76 1016.2
20260831165949 71 157 3.0 4.0 0.00 0.04 0.00 76 1043.8
20260831165449 71 202 1.0 4.0 0.00 0.04 0.00 76 1083.1
20260831164949 71 180 2.0 4.0 0.00 0.04 0.00 75 1059.5
20260831164449 71 202 6.0 6.0 0.00 0.04 0.00 75 1053.3
20260831163949 71 202 2.0 4.0 0.00 0.04 0.00 75 1069.0
20260831163449 72 225 2.0 5.0 0.00 0.04 0.00 75 1095.7
20260831163348 72 180 2.0 5.0 0.00 0.04 0.00 75 1073.8
20260831162949 72 202 2.0 6.0 0.00 0.04 0.00 75 1065.8
20260831162449 72 180 3.0 9.0 0.00 0.04 0.00 75 1062.7
20260831161949 72 202 2.0 6.0 0.00 0.04 0.00 76 1065.8
20260831161449 72 180 3.0 5.0 0.00 0.04 0.00 76 1078.4
20260831160949 72 202 2.0 5.0 0.00 0.04 0.00 76 1046.9
20260831160449 72 225 5.0 6.0 0.00 0.04 0.00 76 1078.4
20260831160048 72 180 2.0 7.0 0.00 0.04 0.00 75 1062.7
20260831155949 72 180 4.0 7.0 0.00 0.04 0.00 75 1075.2
20260831155449 72 157 3.0 6.0 0.00 0.04 0.00 75 1056.4
20260831154949 72 180 2.0 6.0 0.00 0.04 0.00 76 1031.9
20260831154449 72 180 2.0 6.0 0.00 0.04 0.00 76 1059.5
20260831153949 72 157 3.0 8.0 0.00 0.04 0.00 76 1030.5
20260831153449 72 180 3.0 11.0 0.00 0.04 0.00 76 1056.4
20260831152949 72 180 8.0 11.0 0.02 0.04 0.00 77 1068.9
20260831152748 72 180 6.0 11.0 0.02 0.04 0.00 77 1093.9
20260831152449 72 157 7.0 10.0 0.02 0.04 0.00 77 1076.8
20260831151949 72 180 3.0 8.0 0.02 0.04 0.00 78 1042.0
20260831151449 71 202 2.0 6.0 0.02 0.04 0.00 77 1021.2
20260831150949 71 180 4.0 8.0 0.02 0.04 0.00 77 1043.8
20260831150449 71 180 4.0 8.0 0.04 0.04 0.00 77 1072.1
20260831145949 71 135 0.0 6.0 0.04 0.04 0.00 77 1075.3
20260831145448 70 202 3.0 8.0 0.04 0.04 0.00 77 1075.3
20260831144949 70 112 8.0 10.0 0.04 0.04 0.00 76 1031.9
20260831144449 70 180 8.0 10.0 0.04 0.04 0.00 74 1047.6
20260831143949 71 157 6.0 10.0 0.04 0.04 0.00 73 1072.1
20260831143449 71 135 3.0 9.0 0.02 0.02 0.00 72 1056.4
20260831142949 71 157 2.0 4.0 0.02 0.02 0.00 70 1065.8
20260831142449 72 157 3.0 4.0 0.02 0.02 0.00 69 1059.2
20260831142148 72 157 2.0 4.0 0.02 0.02 0.00 69 1092.1
20260831141949 72 180 3.0 4.0 0.02 0.02 0.00 69 1092.9
20260831141449 73 202 3.0 6.0 0.02 0.02 0.00 69 1062.7
20260831140949 73 180 2.0 5.0 0.02 0.02 0.00 68 1056.4
20260831140449 73 180 2.0 5.0 0.00 0.00 0.00 67 1072.1
20260831135949 74 157 4.0 4.0 0.00 0.00 0.00 66 1084.6
20260831135450 74 180 2.0 3.0 0.00 0.00 0.00 66 1084.7
20260831134949 74 180 2.0 3.0 0.00 0.00 0.00 66 1073.7
20260831134848 74 157 2.0 2.0 0.00 0.00 0.00 66 1079.9
20260831134449 74 180 0.0 2.0 0.00 0.00 0.00 66 1079.9
20260831133949 74 225 0.0 1.0 0.00 0.00 0.00 65 1069.0
20260831133449 73 157 0.0 2.0 0.00 0.00 0.00 65 1056.4
20260831132949 73 22 0.0 4.0 0.00 0.00 0.00 65 1068.9
20260831132449 74 180 3.0 3.0 0.00 0.00 0.00 65 1072.1
20260831131949 73 180 3.0 4.0 0.00 0.00 0.00 64 1075.2
20260831131548 73 225 3.0 3.0 0.00 0.00 0.00 64 1061.0
20260831131449 73 247 0.0 5.0 0.00 0.00 0.00 63 1046.9
20260831130949 74 180 5.0 5.0 0.00 0.00 0.00 63 1040.6
20260831130449 74 157 5.0 8.0 0.00 0.00 0.00 61 1072.1
20260831125949 74 180 7.0 7.0 0.00 0.00 0.00 60 1053.2
20260831125449 75 202 5.0 12.0 0.00 0.00 0.00 58 1053.2
20260831124949 76 202 8.0 17.0 0.00 0.00 0.00 57 1090.9
20260831124449 78 202 11.0 17.0 0.00 0.00 0.00 54 1081.5
20260831124248 78 225 10.0 21.0 0.00 0.00 0.00 53 1075.3
20260831123949 79 225 17.0 21.0 0.00 0.00 0.00 51 1087.8
20260831123449 80 225 14.0 14.0 0.00 0.00 0.00 48 1065.8
20260831122949 81 225 7.0 14.0 0.00 0.00 0.00 47 1084.8
20260831122449 82 247 9.0 9.0 0.00 0.00 0.00 46 1035.1
20260831121950 82 202 3.0 7.0 0.00 0.00 0.00 46 1042.9
20260831121449 82 180 1.0 5.0 0.00 0.00 0.00 45 1068.9
20260831120948 83 202 2.0 5.0 0.00 0.00 0.00 44 1075.3
20260831120449 84 202 3.0 6.0 0.00 0.00 0.00 44 988.6
20260831115949 84 225 3.0 4.0 0.00 0.00 0.00 43 1080.5
20260831115449 84 202 2.0 3.0 0.00 0.00 0.00 43 1062.6
20260831114949 85 225 3.0 5.0 0.00 0.00 0.00 42 1065.8
20260831114449 85 202 4.0 6.0 0.00 0.00 0.00 42 1078.4
20260831113949 85 157 4.0 6.0 0.00 0.00 0.00 42 1056.4
20260831113648 86 202 3.0 6.0 0.00 0.00 0.00 42 1056.4
20260831113449 86 157 4.0 6.0 0.00 0.00 0.00 41 1050.1
20260831112949 86 225 3.0 6.0 0.00 0.00 0.00 41 1065.8
20260831112449 87 157 2.0 6.0 0.00 0.00 0.00 41 1061.1
20260831111949 87 225 4.0 6.0 0.00 0.00 0.00 40 1062.7
20260831111449 88 202 7.0 11.0 0.00 0.00 0.00 40 1097.2
20260831110949 88 202 4.0 6.0 0.00 0.00 0.00 40 1048.6
20260831110449 89 202 2.0 9.0 0.00 0.00 0.00 40 1086.3
20260831110348 89 180 5.0 11.0 0.00 0.00 0.00 40 1081.6
20260831105949 89 135 9.0 11.0 0.00 0.00 0.00 40 1078.5
20260831105449 88 157 7.0 8.0 0.00 0.00 0.00 41 1073.7
20260831104950 88 180 2.0 8.0 0.00 0.00 0.00 42 1065.8
20260831104450 87 225 5.0 11.0 0.00 0.00 0.00 41 1086.2
20260831103949 87 180 3.0 10.0 0.00 0.00 0.00 41 1058.6
20260831103449 88 180 2.0 8.0 0.00 0.00 0.00 40 1065.8
20260831103048 89 270 6.0 10.0 0.00 0.00 0.00 40 1080.0
20260831102949 89 270 3.0 11.0 0.00 0.00 0.00 40 1079.9
20260831102449 90 180 4.0 7.0 0.00 0.00 0.00 40 1031.9
20260831101950 89 135 6.0 8.0 0.00 0.00 0.00 41 1072.1
20260831101450 89 157 5.0 8.0 0.00 0.00 0.00 41 1087.8
20260831100949 89 157 3.0 10.0 0.00 0.00 0.00 41 1083.1
20260831100449 88 157 10.0 10.0 0.00 0.00 0.00 42 1046.9
20260831095949 88 202 6.0 7.0 0.00 0.00 0.00 42 1019.3
20260831095748 88 180 6.0 9.0 0.00 0.00 0.00 42 1053.2
20260831095450 88 180 2.0 9.0 0.00 0.00 0.00 42 1047.8
20260831094950 87 180 6.0 10.0 0.00 0.00 0.00 42 1011.4
20260831094450 87 157 6.0 11.0 0.00 0.00 0.00 42 1010.4
20260831093949 87 180 5.0 8.0 0.00 0.00 0.00 43 1078.4
20260831093449 86 135 2.0 8.0 0.00 0.00 0.00 43 1052.2
20260831092950 87 135 3.0 11.0 0.00 0.00 0.00 42 1076.7
20260831092448 87 202 1.0 22.0 0.00 0.00 0.00 42 1062.7
20260831091949 87 247 0.0 10.0 0.00 0.00 0.00 41 1054.8
20260831091450 88 90 8.0 11.0 0.00 0.00 0.00 41 1047.6
20260831090949 88 0 0.0 6.0 0.00 0.00 0.00 40 1069.0
20260831090449 89 135 2.0 7.0 0.00 0.00 0.00 40 1073.0
20260831085949 89 135 4.0 7.0 0.00 0.00 0.00 40 1071.4
20260831085449 90 112 3.0 8.0 0.00 0.00 0.00 40 1058.2
20260831085149 90 112 8.0 8.0 0.00 0.00 0.00 40 1059.5
20260831084949 90 157 6.0 6.0 0.00 0.00 0.00 40 1026.6
20260831084450 90 157 5.0 10.0 0.00 0.00 0.00 40 1056.4
20260831083950 90 225 3.0 9.0 0.00 0.00 0.00 40 1065.5
20260831083449 90 157 0.0 4.0 0.00 0.00 0.00 40 1079.1
20260831082950 91 67 3.0 8.0 0.00 0.00 0.00 40 1030.3
20260831082450 91 157 2.0 5.0 0.00 0.00 0.00 39 1060.3
20260831081950 91 112 4.0 8.0 0.00 0.00 0.00 39 1061.4
20260831081849 91 90 6.0 8.0 0.00 0.00 0.00 39 1042.2
20260831081450 91 112 8.0 8.0 0.00 0.00 0.00 39 1076.2
20260831080450 93 135 0.0 7.0 0.00 0.00 0.00 38 1055.7
20260831075950 94 112 4.0 6.0 0.00 0.00 0.00 38 1035.0
20260831075450 94 112 4.0 4.0 0.00 0.00 0.00 39 1054.7
20260831074950 93 135 0.0 3.0 0.00 0.00 0.00 40 1034.8
20260831074612 93 112 3.0 5.0 0.00 0.00 0.00 39 1050.1
20260831074549 93 67 1.0 5.0 0.00 0.00 0.00 39 1050.6
20260831074450 93 112 3.0 5.0 0.00 0.00 0.00 39 1050.1
20260831073950 94 90 0.0 5.0 0.00 0.00 0.00 38 1016.6
20260831073450 95 135 1.0 5.0 0.00 0.00 0.00 37 1053.2
20260831073356 96 22 1.0 2.0 0.00 0.00 0.00 39 1071.7
20260831073032 96 112 3.0 4.0 0.00 0.00 0.00 38 1064.4
20260831072950 96 112 3.0 4.0 0.00 0.00 0.00 38 1064.4
20260831072450 96 22 1.0 2.0 0.00 0.00 0.00 39 1071.7
20260831071950 95 135 0.0 2.0 0.00 0.00 0.00 40 1053.2
20260831071450 93 315 0.0 2.0 0.00 0.00 0.00 40 1022.3
20260831071249 93 315 0.0 2.0 0.00 0.00 0.00 41 1059.5
20260831071055 93 112 0.0 2.0 0.00 0.00 0.00 41 1042.5
20260831070950 93 112 0.0 2.0 0.00 0.00 0.00 41 1042.5
20260831070635 93 337 0.0 2.0 0.00 0.00 0.00 41 1081.2
20260831070550 93 337 0.0 2.0 0.00 0.00 0.00 41 1081.2
20260831070450 93 337 0.0 2.0 0.00 0.00 0.00 41 1081.2
20260831070429 92 22 0.0 1.0 0.00 0.00 0.00 42 1068.9
20260831070408 91 337 0.0 3.0 0.00 0.00 0.00 42 1055.6
20260831070039 92 22 0.0 1.0 0.00 0.00 0.00 42 1068.9
20260831065950 92 22 0.0 1.0 0.00 0.00 0.00 42 1068.9
20260831065943 92 292 0.0 0.0 0.00 0.00 0.00 43 1014.9
20260831065837 91 135 0.0 1.0 0.00 0.00 0.00 45 1086.3
20260831065808 88 202 1.0 2.0 0.00 0.00 0.00 48 1045.6
20260831065726 84 157 0.0 0.0 0.00 0.00 0.00 51 1054.5
20260831065450 91 337 0.0 3.0 0.00 0.00 0.00 42 1055.6
20260831064950 92 292 0.0 0.0 0.00 0.00 0.00 43 1014.9
20260831064629 84 225 0.0 2.0 0.00 0.00 0.00 51 1080.6
20260831064450 91 135 0.0 1.0 0.00 0.00 0.00 45 1086.3
20260831064343 84 225 0.0 2.0 0.00 0.00 0.00 51 1080.6
20260831063949 88 202 1.0 2.0 0.00 0.00 0.00 48 1045.6
20260831063450 85 157 1.0 2.0 0.00 0.00 0.00 50 1076.8
20260831062950 84 157 0.0 0.0 0.00 0.00 0.00 51 1054.5
20260831062919 84 157 1.0 2.0 0.00 0.00 0.00 52 1070.5
20260831062450 84 225 0.0 2.0 0.00 0.00 0.00 51 1080.6
20260831061950 84 112 2.0 3.0 0.00 0.00 0.00 51 994.8
20260831061450 84 157 1.0 2.0 0.00 0.00 0.00 52 1070.5
20260831061035 84 112 1.0 3.0 0.00 0.00 0.00 54 1069.0
20260831060950 84 112 1.0 3.0 0.00 0.00 0.00 54 1069.0
20260831060829 82 202 0.0 2.0 0.00 0.00 0.00 58 1065.9
20260831060649 82 157 1.0 3.0 0.00 0.00 0.00 56 1050.6
20260831060450 82 202 0.0 2.0 0.00 0.00 0.00 58 1065.9